TimeMDT,TemperatureF,Dew PointF,Humidity,Sea Level PressureIn,VisibilityMPH,Wind Direction,Wind SpeedMPH,Gust SpeedMPH,PrecipitationIn,Events,Conditions,WindDirDegrees,DateUTC
12:54 AM,46.9,35.1,63,29.88,10.0,West,10.4,-,N/A,,Clear,270,2012-10-29 06:54:00
1:54 AM,44.1,35.1,71,29.90,10.0,Calm,Calm,-,N/A,,Clear,0,2012-10-29 07:54:00
2:54 AM,39.9,34.0,79,29.92,10.0,Variable,3.5,-,N/A,,Clear,0,2012-10-29 08:54:00
3:54 AM,39.9,35.1,83,29.91,10.0,South,6.9,-,N/A,,Overcast,180,2012-10-29 09:54:00
4:54 AM,39.0,35.1,86,29.91,10.0,SSE,3.5,-,N/A,,Overcast,150,2012-10-29 10:54:00
5:54 AM,41.0,37.9,89,29.92,10.0,SE,5.8,-,0.01,,Overcast,130,2012-10-29 11:54:00
6:54 AM,41.0,37.0,86,29.90,10.0,SSE,5.8,-,N/A,,Overcast,150,2012-10-29 12:54:00
7:54 AM,42.1,37.0,82,29.89,10.0,ESE,6.9,-,N/A,,Overcast,110,2012-10-29 13:54:00
8:54 AM,43.0,39.0,86,29.90,10.0,ESE,5.8,-,0.00,Rain,Light Rain,110,2012-10-29 14:54:00
9:54 AM,48.0,44.1,86,29.89,10.0,SW,10.4,-,0.01,Rain,Light Rain,220,2012-10-29 15:54:00
10:54 AM,48.9,44.1,83,29.89,10.0,SSW,18.4,-,0.03,Rain,Light Rain,210,2012-10-29 16:54:00
11:54 AM,50.0,45.0,83,29.88,10.0,SW,17.3,-,0.03,Rain,Light Rain,220,2012-10-29 17:54:00
12:54 PM,53.1,45.0,74,29.84,10.0,SW,20.7,-,0.00,,Mostly Cloudy,230,2012-10-29 18:54:00
2:54 PM,61.0,42.1,50,29.82,10.0,WSW,24.2,34.5,N/A,,Scattered Clouds,240,2012-10-29 20:54:00
3:54 PM,57.9,41.0,53,29.85,10.0,WSW,15.0,-,N/A,,Mostly Cloudy,240,2012-10-29 21:54:00
4:54 PM,55.9,42.1,60,29.88,10.0,WSW,17.3,-,0.00,Rain,Light Rain,240,2012-10-29 22:54:00
5:54 PM,55.9,42.1,60,29.89,10.0,WSW,15.0,-,0.00,,Overcast,240,2012-10-29 23:54:00
6:54 PM,53.1,41.0,64,29.93,10.0,SW,10.4,-,N/A,,Overcast,230,2012-10-30 00:54:00
7:54 PM,54.0,39.9,59,29.93,10.0,WSW,20.7,-,N/A,,Mostly Cloudy,240,2012-10-30 01:54:00
8:54 PM,48.9,39.0,69,29.96,10.0,SW,16.1,-,N/A,,Clear,220,2012-10-30 02:54:00
9:54 PM,48.0,36.0,63,29.98,10.0,SW,16.1,-,N/A,,Clear,230,2012-10-30 03:54:00
10:54 PM,46.0,35.1,66,29.99,10.0,SSW,11.5,-,N/A,,Partly Cloudy,210,2012-10-30 04:54:00
11:54 PM,44.1,34.0,68,29.99,10.0,SW,12.7,-,N/A,,Clear,230,2012-10-30 05:54:00